Voltar ao catálogo

COSMOS 1048

AtivoMilitarLEO
NORAD 11111·PAYLOAD·🇷🇺 Russia

Lançado Nov 16, 1978 de Plesetsk Cosmodrome

Loading…

Próximas Passagens (próximas 24 horas)

TLE

AtualizadoSource: Space-Track

Época: Sep 14, 2026, 03:13 UTC

1 11111U 78105A   26257.13462601  .00000089  00000-0  40207-4 0  9995
2 11111  74.0276 171.8557 0017505 264.7297  95.1858 14.35273020500853

Acompanhe COSMOS 1048 em tempo real com AllMySat

Download on the App Store